Regional Weather Roundup
Issued by NWS

Home | Current Version | Previous Version | Graphics & Text | Print | Product List | Glossary On
Versions: 1 2 3 4 5 6 7 8 9 10 11 12 13 14 15 16 17 18 19 20 21 22 23 24 25 26 27 28 29 30 31 32 33 34 35 36 37 38 39 40 41 42 43 44 45 46 47 48 49 50
000
ASUS43 KMKX 071421
RWRWI

WISCONSIN REGIONAL WEATHER ROUNDUP
NATIONAL WEATHER SERVICE MILWAUKEE/SULLIVAN WI
900 AM CDT TUE JUL 07 2015

NOTE: "FAIR" INDICATES FEW OR NO CLOUDS BELOW 12,000 FEET WITH NO
SIGNIFICANT WEATHER AND/OR OBSTRUCTIONS TO VISIBILITY.

WIZ001-002-006>008-014>016-023>028-071500-
NORTHWEST WISCONSIN

CITY           SKY/WX    TMP DP  RH WIND       PRES   REMARKS
SUPERIOR ARPT  SUNNY     61  47  60 N9        30.15R
ASHLAND        SUNNY     60  50  69 N10       30.13R
HAYWARD        SUNNY     57  47  69 NE12      30.13S
SIREN          SUNNY     58  46  62 N9        30.15S
CUMBERLAND     SUNNY     55  45  67 N9        30.13S
RICE LAKE      SUNNY     58  44  58 N13       30.15R
CHETEK         MOSUNNY   58  46  64 NW6       30.13R
LADYSMITH      MOSUNNY   58  49  73 N9G17     30.14R
EAU CLAIRE     PTSUNNY   60  47  61 N7        30.12R
MENOMONIE      CLOUDY    60  47  61 N9        30.13S
NEW RICHMOND   SUNNY     58  46  63 N10       30.15S
OSCEOLA        SUNNY     58  46  65 N6        30.19R
$$

WIZ003>005-009-010-017-018-071500-
NORTH CENTRAL WISCONSIN

CITY           SKY/WX    TMP DP  RH WIND       PRES   REMARKS
MANITOWISH WTR CLOUDY    54  47  76 N10G20    30.10S
ARBOR VITAE    CLOUDY    57  49  75 N12       30.09S
WOODRUFF       CLOUDY    57  49  75 N12       30.09S
RHINELANDER    CLOUDY    54  45  71 N9G18     30.08S
EAGLE RIVER    CLOUDY    55  45  67 N10       30.08R
LAND O LAKES   CLOUDY    54  46  76 N12G21    30.10R
PHILLIPS       PTSUNNY   54  49  82 N8        30.10S
TOMAHAWK       CLOUDY    55  47  76 N8        30.09S
MEDFORD        PTSUNNY   54  47  77 N13       30.09S
MERRILL        PTSUNNY   55  47  73 N8        30.09R
$$

WIZ029-030-035-036-043>047-071500-
CENTRAL WISCONSIN

CITY           SKY/WX    TMP DP  RH WIND       PRES   REMARKS
WAUSAU         MOSUNNY   59  47  64 NW9       30.06R
MOSINEE        MOSUNNY   57  48  72 N10       30.07
MARSHFIELD     MOSUNNY   58  46  64 N10G20    30.08R
STEVENS POINT  SUNNY     57  46  68 N12       30.07R
WAUPACA        PTSUNNY   63  53  71 N7        30.04R
WAUTOMA        CLOUDY    60  55  83 N8        30.05R
WISC RAPIDS    SUNNY     60  47  61 NE14      30.08R
CAMP DOUGLAS   MOSUNNY   61  57  88 NW12      30.07R
$$

WIZ011>013-019>022-031-037>040-048>050-071500-
NORTHEAST WISCONSIN

CITY           SKY/WX    TMP DP  RH WIND       PRES   REMARKS
ANTIGO         PTSUNNY   55  47  75 N15G22    30.07R
SHAWANO        PTSUNNY   63  48  59 N15G21    30.04S
OCONTO         MOSUNNY   60  50  68 N12       30.02R
STURGEON BAY   SUNNY     59  48  67 N16       30.03R
GREEN BAY      SUNNY     63  49  60 N16       30.02S
MANITOWOC      MOSUNNY   61  51  70 MISG      30.01R
APPLETON       PTSUNNY   59  46  63 N14       30.03R
CLINTONVILLE   PTSUNNY   61  46  59 N12G17    30.04R
OSHKOSH        MOSUNNY   62  48  60 NE14      30.03R
$$

WIZ032>034-041-042-053>061-071500-
SOUTHWEST WISCONSIN

CITY           SKY/WX    TMP DP  RH WIND       PRES   REMARKS
LA CROSSE      SUNNY     61  47  59 N15       30.10R
SPARTA         SUNNY     59  48  66 N12       30.10R
VIROQUA        SUNNY     59  50  72 N9        30.09R
BOSCOBEL       CLOUDY    61  53  75 N5        30.06R
PRAIRIE DU CHI PTSUNNY   62  51  67 N9G16     30.07R
PLATTEVILLE    CLOUDY    60  55  85 N10       30.05R
$$

WIZ056-057-062-063-064-067-068-071500-
SOUTH CENTRAL WISCONSIN

CITY           SKY/WX    TMP DP  RH WIND       PRES   REMARKS
REEDSBURG      CLOUDY    58  53  81 N10       30.06R
BARABOO/DELLS  CLOUDY    59  52  78 NW6       30.05R
LONE ROCK      CLOUDY    62  54  74 N10       30.06R HAZE
MINERAL POINT  PTSUNNY   61  55  82 N8        30.05R HAZE
MADISON        CLOUDY    63  55  75 N12       30.03R SMOKE
MIDDLETON      MOSUNNY   63  55  76 N9        30.04R
WATERTOWN      PTSUNNY   62  57  84 NE9G17    30.01R
MONROE         CLOUDY    61  55  82 N13G20    30.02R HAZE
JANESVILLE     CLOUDY    64  57  77 N14       29.99R HAZE
$$

WIZ051-052-058>065-066-070>072-071500-
SOUTHEAST WISCONSIN

CITY           SKY/WX    TMP DP  RH WIND       PRES   REMARKS
MILWAUKEE      MOSUNNY   62  51  67 N15G22    30.00R
WAUKESHA       SUNNY     59  52  77 N10G16    30.00R
MILWAUKEE/TIMM MOSUNNY   63  50  63 N12       30.00R
RACINE         CLOUDY    60  52  74 N14       30.01R
BURLINGTON     CLOUDY    57  55  91 N6        30.00R
KENOSHA        CLOUDY    61  51  70 N16G23    30.00R
FOND DU LAC    SUNNY     63  50  62 N16G23    30.02R
SHEBOYGAN      SUNNY     62  50  64 N10       30.00R
WEST BEND      SUNNY     61  50  67 N9        30.01R
JUNEAU         CLOUDY    62  52  70 N9G16     30.03R
$$

LSZ147-162-071500-
LAKE SUPERIOR

STATION/POSITION TIME  TEMP    WIND        PRES    WAVE
                       AIR SEA DIR/SP/G            HT/PER
                 (UTC) (F)     (DEG/KT/KT) (MB)    (FT/S)
W MID LAKE BUOY  1350   46 39  290/  8/ 10 1019.7R   1
DEVILS ISLAND    1400   56     340/ 11/ 12 1020.5R
PORT WING        1300   57     340/ 12/ 13 1020.3R
SAXON HARBOR     1300   58     350/ 13/ 15 1019.3R
$$

LMZ867-665-643>646-071500-
LAKE MICHIGAN

STATION/POSITION TIME  TEMP    WIND        PRES    WAVE
                       AIR SEA DIR/SP/G            HT/PER
                 (UTC) (F)     (DEG/KT/KT) (MB)    (FT/S)
CHAMBERS ISLAND  1300   58     330/ 15/ 20 1015.9R
N MID LAKE BUOY  1350   53 51  310/ 16/ 19 1014.8R   3/ 4
NORTHPORT PIER   1300   57     330/ 18/ 22 1015.6R
SISTER BAY       1329   59     360/ 19/ 25   N/A
ALGOMA LAKESHORE 1326          360/ 14/ 22   N/A
KEWAUNEE LAKESHO 1300   58     350/ 12/ 17 1015.0R
SHEBOYGAN LAKESH 1400   58     350/ 14/ 15 1016.1R
PORT WASHINGTON  1300   63     360/  5/ 12 1015.9R
ATWATER BUOY     1400   60 58  360/ 12/ 16 1017.0R
MILWAUKEE LAKESH 1400   61     360/ 13/ 17   N/A
KENOSHA   LAKESH 1400   59      10/ 17/ 22 1015.6R
$$

TC  - TEMPERATURE IN CELSIUS
VSB - VISIBILITY IN STATUTE MILES
WCI - WIND CHILL INDEX
HX  - HEAT INDEX



USA.gov is the U.S. government's official web portal to all federal, state and local government web resources and services.